Location: Baili�vre
(50.0696°N, 4.2409°E)
Time: 06:21:02
(UTC+00:00)

Cosmos 1503 Rocket - Pass Details

Date: 08 August 2020
Orbit: 753 x 790 km, 74.0° (Epoch: 26 September)

Event Time Altitude Azimuth Distance (km) Brightness Sun altitude
Exits shadow 23:45:56 54° 128° (SE) 955 4.2 -24.2°
Maximum altitude 23:46:23 56° 107° (ESE) 936 4.2 -24.2°
Drops below altitude 10° 23:51:38 10° 31° (NNE) 2,363 7.3 -24.2°
Sets 23:54:04 0° 27° (NNE) 3,293 8.3 -24.1°
